Regional Weather Roundup
Issued by NWS

Home | Current Version | Previous Version | Graphics & Text | Print | Product List | Glossary Off
Versions: 1 2 3 4 5 6 7 8 9 10 11 12 13 14 15 16 17 18 19 20 21 22 23 24 25 26 27 28 29 30 31 32 33 34 35 36 37 38 39 40 41 42 43 44 45 46 47 48 49 50

000
ASUS43 KMPX 210310
RWRMN
WEATHER ROUNDUP FOR MINNESOTA
NATIONAL WEATHER SERVICE TWIN CITIES/CHANHASSEN MN
900 PM CST SAT JAN 20 2018


NOTE: "FAIR" INDICATES FEW OR NO CLOUDS BELOW 12,000 FEET WITH NO
SIGNIFICANT WEATHER AND/OR OBSTRUCTIONS TO VISIBILITY. N/A MEANS
CURRENT SKY AND/OR WEATHER CONDITIONS ARE NOT AVAILABLE.

MNZ060>063-068>070-210400-
   Twin Cities Metro

CITY           SKY/WX    TMP DP  RH WIND       PRES   REMARKS
TWIN CITIES    MOCLDY    37  32  82 W3        29.93S
ST PAUL        FAIR      31  30  96 CALM      29.94S
CRYSTAL        MOCLDY    34  29  82 CALM      29.92R
BLAINE         MOCLDY    37  34  87 CALM      29.91S
LAKEVILLE      FAIR      28  28 100 CALM      29.92S
EDEN PRAIRIE   FAIR      38  32  79 CALM      29.91S
SOUTH ST PAUL  FAIR      33  32  96 CALM      29.93R
LAKE ELMO      FAIR      32  32 100 CALM      29.93S
$$
MNZ001>005-007-008-013>017-022>024-027-028-210400-
   Northwest Minnesota

CITY           SKY/WX    TMP DP  RH WIND       PRES   REMARKS
BEMIDJI        FAIR      24  23  96 SW6       29.87S WCI  17
HALLOCK        FAIR      16  14  93 S5        29.87R WCI   9
ROSEAU         FAIR      25  19  80 SW8       29.86R WCI  16
WARROAD        FAIR      27  21  80 SW7       29.86R WCI  19
THIEF RVR FALL FAIR      23  22  96 SW6       29.88S WCI  16
CROOKSTON      FAIR      21  19  93 SW6       29.90S WCI  14
FOSSTON        FAIR      19  18  93 S7        29.89R WCI  10
DETROIT LAKES  FAIR      28  27  93 CALM      29.91S FOG
MOORHEAD       FAIR      30  27  86 S5        29.92S WCI  25
PARK RAPIDS    FAIR      19  16  88 CALM      29.88S FOG
MAHNOMEN       FAIR      22  21  96 S9        29.89S WCI  12
$$
MNZ006-009>011-018-025>026-210400-
   North Central Minnesota

CITY           SKY/WX    TMP DP  RH WIND       PRES   REMARKS
BAUDETTE       FAIR      25  22  88 SW7       29.83S WCI  17
FLAG ISLAND    MOCLDY    25  21  86 S6        29.83S WCI  18
INTL FALLS     FAIR      27  22  81 W6        29.84F WCI  20
WASKISH        FAIR      27  25  93 SW7       29.87R WCI  19
BIG FORK       FAIR      21  19  93 CALM      29.86F
LONGVILLE      FAIR      21  19  93 CALM      29.89S
GRAND RAPIDS   FAIR      24  21  88 CALM      29.89S
CRANE LAKE     FAIR      19  18  93 CALM      29.88S
ORR            FAIR      27  25  93 CALM      29.85R
COOK           CLOUDY    21  19  93 CALM      29.87S
WALKER         FAIR      28  24  87 W3        29.88S
$$
MNZ012-019>021-037-210400-
   Northeast Minnesota

CITY           SKY/WX    TMP DP  RH WIND       PRES   REMARKS
DULUTH         FAIR      32  26  78 NW8       29.86S WCI  25
HIBBING        FAIR      19  19 100 NW3       29.87S FOG
EVELETH        FOG       20  17  88 CALM      29.88S VSB 3/4
DULUTH HARBOR  FAIR      32  28  86 SW8       29.89S WCI  25
TWO HARBORS    FAIR      37  30  75 W5        29.85S
SILVER BAY     FAIR      27  27 100 CALM      29.85S
GRAND MARAIS     N/A     31  30  96 CALM      29.88S
G MARAIS ARPRT FAIR      25  19  80 W3        29.85S
$$
MNZ029>031-032-039>041-046>048-054>057-064-210400-
   West Central Minnesota

CITY           SKY/WX    TMP DP  RH WIND       PRES   REMARKS
FERGUS FALLS   FAIR      30  30 100 CALM      29.91R
WHEATON        CLOUDY    36  28  75 W5        29.96R
MORRIS         CLOUDY    34  28  80 SW3       29.93R
ALEXANDRIA     FAIR      31  29  92 CALM      29.91R
ELBOW LAKE     FAIR      31  29  93 CALM      29.92R
WADENA         FAIR      30  27  86 W3        29.89F
GLENWOOD       MOCLDY    34  30  86 W3        29.93R
APPLETON       CLOUDY    37  30  75 SW3       29.94R
BENSON         CLOUDY    36  30  80 W3        29.95R
ORTONVILLE     CLOUDY    37  28  70 W5        29.94R
MADISON        CLOUDY    39  30  70 CALM      29.94R
WILLMAR        FAIR      36  30  80 SW3       29.96R
$$
MNZ033>034-036-042>043-049>051-058-059-210400-
   Central Minnesota

CITY           SKY/WX    TMP DP  RH WIND       PRES   REMARKS
ST CLOUD       CLOUDY    31  29  92 S3        29.91R
SAUK CENTRE      N/A     34  30  85 W3        29.92R
PAYNESVILLE    CLOUDY    33  32  94 CALM      29.93R
AITKIN         FAIR      27  23  86 CALM      29.87F
PINE RIVER     FAIR      27  23  86 W3        29.92S
BRAINERD       FAIR      29  24  82 SW5       29.89S WCI  24
STAPLES        FAIR      27  25  93 CALM      29.90R
LONG PRAIRIE   FAIR      32  28  86 CALM      29.91S
LITTLE FALLS   FAIR      32  27  80 CALM      29.91S
LITCHFIELD     MOCLDY    36  32  87 CALM      29.93S
BUFFALO        CLOUDY    35  30  82 CALM      29.93F
MAPLE LAKE     CLOUDY    36  32  87 MISG      29.93S
HUTCHINSON     MOCLDY    34  32  92 CALM      29.94S
$$
MNZ037-044-045-052-053-210400-
   East Central Minnesota

CITY           SKY/WX    TMP DP  RH WIND       PRES   REMARKS
PRINCETON      FAIR      30  28  93 S3        29.92R
MORA           FAIR      28  27  93 CALM      29.91S
CAMBRIDGE        N/A     34  28  80 S3        29.92R
RUSH CITY      FAIR      28  26  92 S3        29.91R
MOOSE LAKE     FAIR      30  27  86 CALM      29.87S
HINCKLEY       FAIR      30  30 100 CALM      29.89F
CLOQUET        FAIR      30  25  80 CALM      29.87S
MCGREGOR       FAIR      28  27  93 CALM      29.88S
$$
MNZ071>073-080-081-089-090-097-098-210400-
   Southwest Minnesota

CITY           SKY/WX    TMP DP  RH WIND       PRES   REMARKS
MONTEVIDEO     CLOUDY    37  28  70 CALM      29.94R
GRANITE FALLS  CLOUDY    36  31  83 W3        29.95R
CANBY          CLOUDY    36  29  74 NW3       29.94S
MARSHALL       CLOUDY    34  28  79 W5        29.94R WCI  30
REDWOOD FALLS  CLOUDY    38  31  76 N5        29.92S
OLIVIA         CLOUDY    34  32  93 CALM      29.92S
PIPESTONE      CLOUDY    36  27  69 CALM      29.91R
WINDOM         CLOUDY    34  19  55 CALM      29.92R
WORTHINGTON    CLOUDY    35  30  82 N7        29.92R WCI  29
JACKSON        CLOUDY    32  30  93 N5        29.92R WCI  27
TRACY          CLOUDY    35  30  82 CALM      29.92S
SLAYTON        CLOUDY    35  29  80 CALM      29.93R
$$
MNZ065>067-074>077-082>085-091>093-210400-
   South Central Minnesota

CITY           SKY/WX    TMP DP  RH WIND       PRES   REMARKS
MANKATO        FAIR      33  31  92 CALM      29.92F
NEW ULM        CLOUDY    37  28  70 CALM      29.92S
ST JAMES       CLOUDY    30  28  93 CALM      29.93S
FAIRMONT       CLOUDY    31  29  92 N3        29.92R
GLENCOE        FAIR      36  32  87 NW3       29.92S
FARIBAULT      FAIR      28  28 100 CALM      29.92F FOG
OWATONNA       FAIR      30  28  93 CALM      29.92S
WASECA         FAIR      32  30  93 CALM      29.93S
ALBERT LEA     FAIR      32  30  93 CALM      29.91R
$$
MNZ078>079-086>088-094>096-210400-
   Southeast Minnesota

CITY           SKY/WX    TMP DP  RH WIND       PRES   REMARKS
ROCHESTER      FAIR      33  31  92 SE5       29.91S WCI  29
RED WING       FAIR      28  27  93 CALM      29.93S FOG
STANTON        FAIR      30  28  93 CALM      29.91S
DODGE CENTER   FAIR      32  30  93 CALM      29.91S
WINONA         FAIR      30  28  93 CALM      29.93S FOG
PRESTON        FAIR      34  30  86 CALM      29.92S
$$
ABBREVIATIONS USED IN REMARKS
   TC - TEMPERATURES IN CELSIUS
  WCI - WIND CHILL INDEX
   HX - HEAT INDEX
  VSB - VISIBILITY
$$




USA.gov is the U.S. government's official web portal to all federal, state and local government web resources and services.